FENGYUN 1C DEB, 30934

Orbit data source: Space-Track

FENGYUN 1C DEB, 30934 is space debris in SSO originally from a launch on Mon, 10 May 1999 UTC launched from the Taiyaun Space Center, China (TSC). Fengyun 1C debris stems from the Chinese weather satellite Fengyun-1C, which was intentionally destroyed by a Chinese anti-satellite missile in 2007. This event dramatically increased the amount of space debris, with thousands of trackable fragments posing hazards to satellites and human spaceflight. The Fengyun 1C debris cloud has become a focal point in discussions about space sustainability and the need for international regulations to prevent the creation of new debris.

Loading next visibility...
Identifier
30934, 1999-025AZY
Orbit
SSO
Country
Flag of CNCN / PRC
Related business
Manufacturer
Unknown
Mission
Spacecraft
Bus & Motor
Unknown
Mass
Unknown
Launch date (UTC)
1999-05-10 (27 years ago)
Launch vehicle
Unknown
Launch site
Taiyaun Space Center, China (TSC)
Object type
Payload
Rocket body
Debris
Shape & HBR
Unknown shape, 1.1 m
Radar Cross Section
Medium (>0.1 m² and <1 m²)

Expand to show TLE details & history
Last TLE update: 14 hours ago

TLE from 14 hours ago
0 FENGYUN 1C DEB
1 30934U 99025AZY 26237.83795058  .00000856  00000-0  10256-2 0  9994
2 30934  98.7469  88.4397 0338590 148.4068 213.7890 13.47474407951569
Epoch: 2026-08-25T20:06Z
TLE epoch observation values (Epoch: 2026-08-25T20:06:38.930Z)
Latitude
0.00005°
Longitude
172.67792°
Altitude
1,296.878 km
Speed
7.105 km/s
True Right ascension
05h 53m 45s
True Declination
0° 00' 00"
Sunlit
Object was in daylight at epoch
Visualization orbit readout
Latitude
Unknown
Longitude
Unknown
Altitude
Unknown
Speed
Unknown
Apparent Right ascension
Unknown
Apparent Declination
Unknown
Sunlit
N/A
Visualization observer readout
Local Sidereal Time
01:46:22
Azimuth
Unknown
Elevation
Unknown
Doppler factor
Unknown
Orbital elements
Apogee altitude
1,331.304 km
Perigee altitude
826.334 km
Semi-major axis
7,456.956 km
Eccentricity
0.03386
Inclination
98.7469°
RAAN
88.4397°
Arg. of periapsis
148.4068°
True anomaly
211.70509°
Mean anomaly
213.789°
Eccentric anomaly
212.73981°
Mean motion
3.37055 °/min
Orbital period
106.81 mins
BSTAR
0.0010256
Loading maneuver chart data...
Computing Atmospheric mass density...
Loading historical data...
Loading historical data...
Loading historical data...
Loading historical data...
Loading historical data...
Loading historical data...
Loading historical data...

Documentation

Showing up to 5 results
|